Location: Gro�sch�nbrunn
(49.5760°N, 11.8868°E)
Time: 21:32:59
(UTC+00:00)

Lacrosse 4 Rocket - Pass Details

Date: 18 September 2020
Orbit: 543 x 615 km, 68.0° (Epoch: 21 October)

Event Time Altitude Azimuth Distance (km) Brightness Sun altitude
Rises 19:20:02 0° 333° (NNW) 2,717 5.7 -19.7°
Reaches altitude 10° 19:23:13 10° 0° (N) 1,822 4.3 -20.2°
Maximum altitude 19:25:22 14° 32° (NNE) 1,589 3.6 -20.5°
Enters shadow 19:25:52 14° 41° (NE) 1,603 3.6 -20.6°
